This is the latest recevied weather packets stored in our database for station/object KQ4EHY-1. If no packets are shown the sender has not sent any weather packets the latest 10 day(s).
| Time | Temp. | Humidity | Pressure | Rain* | Wind** | Luminosity | Snow |
|---|---|---|---|---|---|---|---|
| 1777569729 | 22.22° C | 71% | 1006.5 hPa | 0 mm | 0.89 m/s, 310° | - | - |
| 1777569669 | 22.22° C | 71% | 1006.5 hPa | 0 mm | 0.89 m/s, 310° | - | - |
| 1777569609 | 22.22° C | 73% | 1006.2 hPa | 0 mm | 0.45 m/s, 353° | - | - |
| 1777569549 | 22.22° C | 73% | 1006.2 hPa | 0 mm | 0.45 m/s, 353° | - | - |
| 1777569489 | 22.22° C | 73% | 1006.2 hPa | 0 mm | 0.45 m/s, 353° | - | - |
| 1777569429 | 22.22° C | 73% | 1006.2 hPa | 0 mm | 0.45 m/s, 353° | - | - |
| 1777569369 | 22.22° C | 73% | 1006.2 hPa | 0 mm | 0.45 m/s, 353° | - | - |
| 1777569309 | 22.22° C | 74% | 1006.5 hPa | 0 mm | 0.45 m/s, 236° | - | - |
| 1777569249 | 22.22° C | 74% | 1006.5 hPa | 0 mm | 0.45 m/s, 236° | - | - |
| 1777569189 | 22.22° C | 74% | 1006.5 hPa | 0 mm | 0.45 m/s, 236° | - | - |
| 1777569129 | 22.22° C | 74% | 1006.5 hPa | 0 mm | 0.45 m/s, 236° | - | - |
| 1777569069 | 22.22° C | 74% | 1006.5 hPa | 0 mm | 0.45 m/s, 236° | - | - |
| 1777569010 | 22.22° C | 74% | 1006.5 hPa | 0 mm | 0.45 m/s, 236° | - | - |
| 1777568949 | 22.22° C | 71% | 1006.7 hPa | 0 mm | 0.89 m/s, 135° | - | - |
| 1777568889 | 22.22° C | 71% | 1006.7 hPa | 0 mm | 0.89 m/s, 135° | - | - |
| 1777568829 | 22.22° C | 71% | 1006.7 hPa | 0 mm | 0.89 m/s, 135° | - | - |
| 1777568770 | 22.22° C | 71% | 1006.7 hPa | 0 mm | 0.89 m/s, 135° | - | - |
| 1777568709 | 22.22° C | 71% | 1006.7 hPa | 0 mm | 0.89 m/s, 135° | - | - |
| 1777568649 | 22.78° C | 69% | 1006.7 hPa | 0 mm | 1.79 m/s, 317° | - | - |
| 1777568589 | 22.78° C | 69% | 1006.7 hPa | 0 mm | 1.79 m/s, 317° | - | - |
| 1777568529 | 22.78° C | 69% | 1006.7 hPa | 0 mm | 1.79 m/s, 317° | - | - |
| 1777568469 | 22.78° C | 69% | 1006.7 hPa | 0 mm | 1.79 m/s, 317° | - | - |
| 1777568409 | 22.22° C | 72% | 1006.6 hPa | 0 mm | 0.45 m/s, 20° | - | - |
| 1777568349 | 22.22° C | 72% | 1006.6 hPa | 0 mm | 0.45 m/s, 20° | - | - |
| 1777568289 | 22.22° C | 72% | 1006.6 hPa | 0 mm | 0.45 m/s, 20° | - | - |
* Rain latest hour (hover to see other rain measurements)
** Current wind speed in m/s (hover to see current wind gust speed)